Castlegar, British Columbia

5:19 AM PDT on June 29, 2017 (GMT -0700)
Castlegar

Weather History for CYCG - April, 2013

Change the Weather History Date:

Wednesday, April 24, 2013

  Actual Average Record
Temperature  
Mean Temperature 52 °F -  
Max Temperature 64 °F 63 °F 77 °F (1999)
Min Temperature 41 °F 41 °F 26 °F (2002)
Degree Days  
Heating Degree Days 12    
Growing Degree Days 2 (Base 50)    
Moisture  
Dew Point 32 °F    
Average Humidity 54    
Maximum Humidity 97    
Minimum Humidity 21    
Precipitation  
Precipitation 0.83 in 0.08 in - ()
Sea Level Pressure  
Sea Level Pressure 30.11 in    
Wind  
Wind Speed 6 mph ()    
Max Wind Speed 20 mph    
Max Gust Speed -    
Visibility 15.0 miles    
Events      
Averages and records for this station are not official NWS values.
T = Trace of Precipitation, MM = Missing Value Source: Averaged Metar Reports

Daily Weather History Graph

Daily Weather History Graph

Search for Another Location

Airport or City:

Trip Planner

Search our weather history database for the weather conditions in past years. The results will help you decide how hot, cold, wet, or windy it might be!

Date:

Astronomy

Apr. 24, 2013 Rise Set
Actual Time 5:40 AM PDT 7:57 PM PDT
Civil Twilight 5:05 AM PDT 8:32 PM PDT
Nautical Twilight 4:22 AM PDT 9:16 PM PDT
Astronomical Twilight 3:32 AM PDT 10:06 PM PDT
Moon 7:03 PM PDT (4/24) 4:53 AM PDT (4/24)
Length of Visible Light 15h 26m
Length of Day
14h 16m
Waxing Gibbous, 98% of the Moon is Illuminated
Apr 24
Waxing Gibbous
Apr 25
Full
May 2
Last Quarter
May 9
New
May 17
First Quarter

Hourly Weather History & Observations

Time (PDT) Temp. Windchill Dew Point Humidity Pressure Visibility Wind Dir Wind Speed Gust Speed Precip Events Conditions
5:00 AM 54 °F - 53 °F 95% 29.99 in - East 13.8 mph - -  
6:00 AM 28.4 °F - 26.6 °F 93% 30.33 in 15.0 mi ESE 2.3 mph - N/A   Clear
7:00 AM 30.2 °F - 26.6 °F 86% 30.34 in 15.0 mi SSE 2.3 mph - N/A   Clear
8:00 AM 37.4 °F 32.8 °F 30.2 °F 75% 30.32 in 15.0 mi SSE 5.8 mph - N/A   Scattered Clouds
9:00 AM 42.8 °F 39.3 °F 28.4 °F 57% 30.30 in 15.0 mi South 5.8 mph - N/A   Mostly Cloudy
10:00 AM 50.0 °F - 30.2 °F 47% 30.26 in 15.0 mi NNW 2.3 mph - N/A   Mostly Cloudy
11:00 AM 52 °F - 51 °F 97% 29.86 in - SE 19.6 mph - -  
11:00 AM 53.6 °F - 30.2 °F 41% 30.22 in 15.0 mi South 4.6 mph - N/A   Mostly Cloudy
12:00 PM 59.0 °F - 30.2 °F 34% 30.19 in 15.0 mi NNW 4.6 mph - N/A   Mostly Cloudy
1:00 PM 60.8 °F - 28.4 °F 29% 30.15 in 15.0 mi South 2.3 mph - N/A   Mostly Cloudy
2:00 PM 62.6 °F - 28.4 °F 27% 30.11 in 15.0 mi SW 5.8 mph - N/A   Overcast
3:00 PM 62.6 °F - 28.4 °F 27% 30.08 in 15.0 mi North 8.1 mph - N/A   Scattered Clouds
4:00 PM 64.4 °F - 23.0 °F 21% 30.05 in 15.0 mi NNW 3.5 mph - N/A   Scattered Clouds
5:00 PM 44 °F - 43 °F 95% 29.88 in - South 16.1 mph - -  
5:00 PM 64.4 °F - 23.0 °F 21% 30.01 in 15.0 mi Calm Calm - N/A   Mostly Cloudy
6:00 PM 64.4 °F - 24.8 °F 22% 29.99 in 15.0 mi NNW 2.3 mph - N/A   Mostly Cloudy
8:00 PM 57.2 °F - 28.4 °F 33% 29.96 in 15.0 mi NNE 9.2 mph - N/A   Mostly Cloudy
9:00 PM 55.4 °F - 30.2 °F 38% 29.96 in 15.0 mi SE 2.3 mph - N/A   Mostly Cloudy
11:00 PM 43 °F - 42 °F 97% 30.00 in - South 15.0 mph - -